Zurück zum Katalog

QIANFAN-73

AktivKommunikationPO
NORAD 63159·PAYLOAD·🇨🇳 China

Gestartet Mar 11, 2025 von Wenchang Space Launch Site

Loading…

Nächste Überflüge (nächste 24 Stunden)

TLE

AktuellSource: Space-Track

Epoche: Sep 14, 2026, 20:38 UTC

1 63159U 25046A   26257.86014010  .00000025  00000-0  19673-4 0  9990
2 63159  88.9650 291.3556 0016456  51.4328 308.8294 13.51025015 84692

Verfolge QIANFAN-73 in Echtzeit mit AllMySat

Download on the App Store